Weather in Vigonichi

Russia / Bryansk Oblast     53°06′15″N   34°03′46″E
temp.,
°C
wind,
m/s
gust,
m/s
humid.,
%
clouds,
%
prec.,
mm/h
press.,
hPa
HPBL,
m
13 april, tue
tue1300:00+11ese41179100 0.0 1021212
03:00+10se4118762 0.0 1021191
06:00+9se3688100 0.0 102282
09:00+13se3572100 0.0 1022229
12:00+18se465490 0.0 10211196
15:00+19sse694797 0.0 10192085
18:00+15sse41058100 0.2 1019345
21:00+12s2573100 0.3 1019135
14 april, wed
wed1400:00+12se3878100 0.1 1018284
03:00+11sse488596 0.1 1018367
06:00+10sse3793100 0.0 1018301
09:00+10sse4785100 0.0 1019424
12:00+14sse346471 0.0 10181020
15:00+15s3457100 0.3 10161290
18:00+15sse2462100 0.1 1015264
21:00+11ese3578100 0.2 1016102
15 april, thu
thu1500:00+11sse3882100 0.1 1015230
03:00+10ese2387100 0.5 101599
06:00+9ene2389100 0.3 101490
09:00+10ese4886100 0.7 1014390
12:00+10e478299 0.8 1014464
15:00+12e237376 0.8 1013540
18:00+13e2472100 0.5 1013341
21:00+10e228298 0.8 101338
16 april, fri
fri1600:00+10ene2282100 0.0 101323
03:00+8se2488100 0.0 101370
06:00+8ese3893100 0.5 1013304
09:00+10e4789100 2.1 1014404
12:00+13e4669100 1.1 10141043
15:00+13ese4666100 2.8 1014954
18:00+12sse46685 0.4 1014681
21:00+8s34835 0.6 101664
17 april, sat
sat1700:00+7ese118317 0.0 101811
03:00+6sse22855 0.0 101818
06:00+5ssw118481 0.0 101910
09:00+9nw116785 0.0 1020303
12:00+11nnw4563100 0.0 1019930
15:00+10se2688100 2.1 1019505
18:00+7wsw4689100 1.3 1019294
21:00+6wnw2295100 1.7 102132